This is the latest recevied weather packets stored in our database for station/object K3BAY-1. If no packets are shown the sender has not sent any weather packets the latest 10 day(s).
| Time | Temp. | Humidity | Pressure | Rain* | Wind** | Luminosity | Snow |
|---|---|---|---|---|---|---|---|
| 1777998856 | 28.33° C | 38% | 1012.6 hPa | 0 mm | - | 124 W/m² | - |
| 1777998554 | 28.33° C | 40% | 1012.6 hPa | 0 mm | - | 56 W/m² | - |
| 1777998250 | 27.78° C | 41% | 1012.9 hPa | 0 mm | - | 57 W/m² | - |
| 1777997947 | 28.33° C | 38% | 1012.6 hPa | 0 mm | - | 55 W/m² | - |
| 1777997644 | 28.33° C | 40% | 1012.9 hPa | 0 mm | - | 54 W/m² | - |
| 1777997341 | 27.78° C | 41% | 1012.6 hPa | 0 mm | - | 53 W/m² | - |
| 1777997039 | 27.78° C | 41% | 1012.6 hPa | 0 mm | - | 54 W/m² | - |
| 1777996736 | 27.78° C | 42% | 1012.2 hPa | 0 mm | - | 90 W/m² | - |
| 1777996431 | 27.22° C | 42% | 1012.2 hPa | 0 mm | - | 53 W/m² | - |
| 1777996128 | 27.78° C | 42% | 1012.2 hPa | 0 mm | - | 50 W/m² | - |
| 1777995824 | 27.22° C | 42% | 1012.2 hPa | 0 mm | - | 50 W/m² | - |
| 1777995521 | 26.67° C | 44% | 1011.9 hPa | 0 mm | - | 51 W/m² | - |
| 1777995217 | 27.22° C | 43% | 1011.9 hPa | 0 mm | - | 50 W/m² | - |
| 1777994915 | 27.22° C | 44% | 1011.9 hPa | 0 mm | - | 51 W/m² | - |
| 1777994611 | 26.11° C | 44% | 1011.9 hPa | 0 mm | - | 50 W/m² | - |
| 1777994306 | 26.11° C | 45% | 1011.9 hPa | 0 mm | - | 49 W/m² | - |
| 1777994003 | 26.67° C | 44% | 1011.5 hPa | 0 mm | - | 48 W/m² | - |
| 1777993700 | 26.67° C | 43% | 1011.1 hPa | 0 mm | - | 49 W/m² | - |
| 1777993397 | 25.56° C | 46% | 1011.1 hPa | 0 mm | - | 47 W/m² | - |
| 1777993091 | 26.67° C | 45% | 1010.8 hPa | 0 mm | - | 46 W/m² | - |
| 1777992790 | 26.67° C | 45% | 1010.8 hPa | 0 mm | - | 46 W/m² | - |
| 1777992487 | 25.56° C | 44% | 1011.1 hPa | 0 mm | - | 46 W/m² | - |
| 1777992186 | 25.56° C | 46% | 1010.8 hPa | 0 mm | - | 46 W/m² | - |
| 1777991882 | 25.56° C | 46% | 1010.8 hPa | 0 mm | - | 46 W/m² | - |
| 1777991580 | 26.11° C | 44% | 1010.8 hPa | 0 mm | - | 44 W/m² | - |
* Rain latest hour (hover to see other rain measurements)
** Current wind speed in m/s (hover to see current wind gust speed)